This is the latest recevied weather packets stored in our database for station/object W4ZHA. If no packets are shown the sender has not sent any weather packets the latest 10 day(s).
| Time | Temp. | Humidity | Pressure | Rain* | Wind** | Luminosity | Snow |
|---|---|---|---|---|---|---|---|
| 1777898384 | 11.11° C | 77% | 1018.3 hPa | 0 mm | - | 43 W/m² | - |
| 1777898083 | 10.56° C | 82% | 1018.3 hPa | 0 mm | - | 59 W/m² | - |
| 1777897778 | 10.56° C | 87% | 1018.3 hPa | 0 mm | - | 29 W/m² | - |
| 1777897475 | 10° C | 92% | 1018.3 hPa | 0 mm | - | 27 W/m² | - |
| 1777897170 | 10° C | 96% | 1018.3 hPa | 0 mm | - | 26 W/m² | - |
| 1777896867 | 9.44° C | 97% | 1018.3 hPa | 0 mm | - | 26 W/m² | - |
| 1777896565 | 9.44° C | 99% | 1018.3 hPa | 0 mm | - | 25 W/m² | - |
| 1777896262 | 8.89° C | 99% | 1018.3 hPa | 0 mm | - | 25 W/m² | - |
| 1777895960 | 8.89° C | 99% | 1017.9 hPa | 0 mm | - | 23 W/m² | - |
| 1777895657 | 8.89° C | 99% | 1018.3 hPa | 0 mm | - | 21 W/m² | - |
| 1777895354 | 8.89° C | 99% | 1018.3 hPa | 0 mm | - | 20 W/m² | - |
| 1777895052 | 8.33° C | 99% | 1017.9 hPa | 0 mm | - | 19 W/m² | - |
| 1777894749 | 8.33° C | 99% | 1017.9 hPa | 0 mm | - | 19 W/m² | - |
| 1777894445 | 7.78° C | 99% | 1017.9 hPa | 0 mm | - | 18 W/m² | - |
| 1777894143 | 7.78° C | 99% | 1017.9 hPa | 0 mm | - | 16 W/m² | - |
| 1777893840 | 7.78° C | 99% | 1017.9 hPa | 0 mm | - | 13 W/m² | - |
| 1777893536 | 7.78° C | 99% | 1017.9 hPa | 0 mm | - | 11 W/m² | - |
| 1777893233 | 7.22° C | 99% | 1017.6 hPa | 0 mm | - | 8 W/m² | - |
| 1777892929 | 7.22° C | 99% | 1017.9 hPa | 0 mm | - | 5 W/m² | - |
| 1777892626 | 7.22° C | 99% | 1017.6 hPa | 0 mm | - | 2 W/m² | - |
| 1777892322 | 7.22° C | 98% | 1017.6 hPa | 0 mm | - | 0 W/m² | - |
| 1777892018 | 7.22° C | 98% | 1017.6 hPa | 0 mm | - | 0 W/m² | - |
| 1777891716 | 6.67° C | 98% | 1017.6 hPa | 0 mm | - | 0 W/m² | - |
| 1777891412 | 7.22° C | 98% | 1017.2 hPa | 0 mm | - | 0 W/m² | - |
| 1777891107 | 6.67° C | 95% | 1017.6 hPa | 0 mm | - | 0 W/m² | - |
* Rain latest hour (hover to see other rain measurements)
** Current wind speed in m/s (hover to see current wind gust speed)